FW1589 Weather Reports


Display with metric or nautical units.
time (UTC)temp
F
wind
direction
speed
MPH
gust
MPH
rain 1hr
in
rain 24hr
in
rain mn
in
humidity
%
barometer
mb
20260831200256 59 265 4.0 9.0 0.00 0.00 0.00 85 996.8
20260831195756 59 237 4.0 8.0 0.00 0.00 0.00 85 996.9
20260831195256 59 213 4.0 10.0 0.00 0.00 0.00 85 997.0
20260831194757 59 236 4.0 10.0 0.00 0.00 0.00 85 996.9
20260831194256 59 248 3.0 9.0 0.00 0.00 0.00 85 997.0
20260831193754 59 247 3.0 8.0 0.00 0.00 0.00 85 997.0
20260831193255 59 254 3.0 9.0 0.00 0.00 0.00 85 997.0
20260831192754 59 190 3.0 9.0 0.00 0.00 0.00 84 997.0
20260831192254 59 200 4.0 11.0 0.00 0.00 0.00 85 997.0
20260831191754 59 208 4.0 11.0 0.00 0.00 0.00 84 997.1
20260831191248 59 204 4.0 9.0 0.00 0.00 0.00 85 997.2
20260831190740 59 173 4.0 9.0 0.00 0.00 0.00 84 997.0
20260831190239 59 246 4.0 9.0 0.00 0.00 0.00 84 997.1
20260831185739 59 248 3.0 7.0 0.00 0.00 0.00 84 997.1
20260831185239 59 228 3.0 8.0 0.00 0.00 0.00 84 997.1
20260831184736 59 169 3.0 8.0 0.00 0.00 0.00 84 997.2
20260831184236 59 208 4.0 8.0 0.00 0.00 0.00 84 997.1
20260831183738 59 222 4.0 11.0 0.00 0.00 0.00 84 997.2
20260831183234 59 266 4.0 11.0 0.00 0.00 0.00 85 997.2
20260831182734 59 260 4.0 11.0 0.00 0.00 0.00 84 997.0
20260831182236 59 232 4.0 10.0 0.00 0.00 0.00 85 997.1
20260831181732 58 242 4.0 12.0 0.00 0.00 0.00 85 997.0
20260831181234 58 177 4.0 12.0 0.00 0.00 0.00 85 997.1
20260831180733 58 208 4.0 9.0 0.00 0.00 0.00 85 997.2
20260831175731 58 260 4.0 10.0 0.00 0.00 0.00 86 997.2
20260831175231 58 182 4.0 10.0 0.00 0.00 0.00 86 997.3
20260831174731 58 234 4.0 16.0 0.00 0.00 0.00 85 997.3
20260831174230 58 221 5.0 16.0 0.00 0.00 0.00 86 997.1
20260831173725 58 201 5.0 14.0 0.00 0.00 0.00 86 997.1
20260831173219 58 266 5.0 16.0 0.00 0.00 0.00 86 997.1
20260831172207 57 190 4.0 9.0 0.00 0.00 0.00 86 996.9
20260831171701 57 190 4.0 10.0 0.00 0.00 0.00 87 996.9
20260831171155 57 233 5.0 10.0 0.00 0.00 0.00 87 996.9
20260831170648 57 169 5.0 10.0 0.00 0.00 0.00 87 997.2
20260831170143 57 209 5.0 10.0 0.00 0.00 0.00 87 996.8
20260831165636 57 189 5.0 10.0 0.00 0.00 0.00 87 996.8
20260831165131 57 188 4.0 10.0 0.00 0.00 0.00 87 996.8
20260831164626 57 223 4.0 9.0 0.00 0.00 0.00 88 996.7
20260831164118 57 165 4.0 10.0 0.00 0.00 0.00 88 996.7
20260831163613 57 215 4.0 12.0 0.00 0.00 0.00 88 996.8
20260831163106 57 216 4.0 12.0 0.00 0.00 0.00 88 996.6
20260831162601 57 142 3.0 8.0 0.00 0.00 0.00 88 996.5
20260831161549 57 246 4.0 7.0 0.00 0.00 0.00 88 996.3
20260831161044 57 222 4.0 10.0 0.00 0.00 0.00 88 996.5
20260831160031 57 192 4.0 13.0 0.00 0.00 0.00 88 996.3
20260831155019 56 217 3.0 7.0 0.00 0.00 0.00 89 996.3
20260831154513 56 265 3.0 8.0 0.00 0.00 0.00 89 996.3
20260831154006 56 208 3.0 10.0 0.00 0.00 0.00 89 996.4
20260831153500 56 177 3.0 10.0 0.00 0.00 0.00 89 996.3
20260831152449 56 266 3.0 10.0 0.00 0.00 0.00 89 996.2
20260831151943 56 200 5.0 11.0 0.00 0.00 0.00 89 996.2
20260831151438 56 160 3.0 11.0 0.00 0.00 0.00 89 996.2
20260831150931 56 218 3.0 11.0 0.00 0.00 0.00 89 996.3
20260831145918 56 231 4.0 9.0 0.00 0.00 0.00 89 996.1
20260831145413 56 224 4.0 9.0 0.00 0.00 0.00 89 996.1
20260831144401 56 185 4.0 14.0 0.00 0.00 0.00 89 995.9
20260831143855 56 188 4.0 9.0 0.00 0.00 0.00 89 995.9
20260831143349 56 203 3.0 8.0 0.00 0.00 0.00 89 995.8
20260831142843 56 217 4.0 10.0 0.00 0.00 0.00 89 995.8
20260831142337 56 205 4.0 10.0 0.00 0.00 0.00 89 995.7
20260831141831 56 240 4.0 9.0 0.00 0.00 0.00 89 995.5
20260831141324 56 211 4.0 11.0 0.00 0.00 0.00 89 995.7
20260831140819 56 220 4.0 11.0 0.00 0.00 0.00 88 995.6
20260831140319 56 176 4.0 10.0 0.00 0.00 0.00 88 995.5
20260831135819 56 230 4.0 10.0 0.00 0.00 0.00 88 995.5
20260831135319 56 238 4.0 10.0 0.00 0.00 0.00 88 995.5
20260831134319 56 252 3.0 13.0 0.00 0.00 0.00 88 995.3
20260831133818 56 146 3.0 9.0 0.00 0.00 0.00 88 995.2
20260831132816 56 217 4.0 10.0 0.00 0.00 0.00 87 995.4
20260831132314 56 227 4.0 8.0 0.00 0.00 0.00 88 995.3
20260831131815 56 252 4.0 10.0 0.00 0.00 0.00 87 995.3
20260831130812 56 200 3.0 7.0 0.00 0.00 0.00 87 995.3
20260831130313 56 224 4.0 10.0 0.00 0.00 0.00 87 995.1
20260831125813 56 233 4.0 10.0 0.00 0.00 0.00 87 995.0
20260831124309 56 252 4.0 11.0 0.00 0.00 0.00 87 995.2
20260831123811 56 219 4.0 12.0 0.00 0.00 0.00 87 995.1
20260831123305 56 178 3.0 10.0 0.00 0.00 0.00 87 995.1
20260831122759 56 230 3.0 6.0 0.00 0.00 0.00 87 995.1
20260831122253 56 171 3.0 8.0 0.00 0.00 0.00 87 995.0
20260831121747 56 236 3.0 8.0 0.00 0.00 0.00 87 995.0
20260831121241 56 250 3.0 8.0 0.00 0.00 0.00 87 995.0
20260831115722 56 199 4.0 9.0 0.00 0.00 0.00 87 995.0
20260831115220 56 235 3.0 9.0 0.00 0.00 0.00 87 994.9
20260831114720 56 210 3.0 8.0 0.00 0.00 0.00 87 995.0
20260831114220 56 221 3.0 9.0 0.00 0.00 0.00 87 995.0
20260831113720 56 220 3.0 9.0 0.00 0.00 0.00 87 994.9
20260831113220 56 205 4.0 9.0 0.00 0.00 0.00 87 994.9
20260831112720 56 254 4.0 9.0 0.00 0.00 0.00 87 994.8
20260831112219 56 215 4.0 10.0 0.00 0.00 0.00 87 994.8
20260831111720 56 246 4.0 11.0 0.00 0.00 0.00 87 995.0
20260831111220 56 216 4.0 11.0 0.00 0.00 0.00 87 995.0
20260831110721 56 241 4.0 9.0 0.00 0.00 0.00 87 995.0
20260831105716 57 171 3.0 8.0 0.00 0.00 0.00 87 995.0
20260831105217 57 240 3.0 7.0 0.00 0.00 0.00 87 994.9
20260831104715 57 142 3.0 7.0 0.00 0.00 0.00 87 994.8
20260831104217 57 242 3.0 7.0 0.00 0.00 0.00 86 994.7
20260831103716 57 173 3.0 7.0 0.00 0.00 0.00 86 994.8
20260831103216 57 200 4.0 12.0 0.00 0.00 0.00 86 994.9
20260831102716 57 225 4.0 12.0 0.00 0.00 0.00 87 994.8
20260831101717 57 217 5.0 10.0 0.00 0.00 0.00 87 994.7
20260831100217 57 252 5.0 11.0 0.00 0.00 0.00 87 994.7
20260831095715 57 180 5.0 12.0 0.00 0.00 0.00 87 994.6
20260831095217 57 186 5.0 12.0 0.00 0.00 0.00 87 994.6
20260831094717 57 166 5.0 11.0 0.00 0.00 0.00 87 994.6
20260831093716 57 182 5.0 13.0 0.00 0.00 0.00 87 994.6
20260831093215 57 175 5.0 13.0 0.00 0.00 0.00 87 994.7
20260831092715 57 175 5.0 11.0 0.00 0.00 0.00 87 994.7
20260831091717 57 174 5.0 11.0 0.00 0.00 0.00 87 994.7
20260831091215 57 196 6.0 11.0 0.00 0.00 0.00 87 994.7
20260831090711 57 188 6.0 10.0 0.00 0.00 0.00 87 994.8
20260831090211 57 194 6.0 15.0 0.00 0.00 0.00 87 994.9
20260831085712 57 170 5.0 15.0 0.00 0.00 0.00 87 994.8
20260831085211 57 195 4.0 12.0 0.00 0.00 0.00 87 994.9
20260831084711 57 195 4.0 12.0 0.00 0.00 0.00 87 994.9
20260831084211 57 186 4.0 9.0 0.00 0.00 0.00 87 994.9
20260831083712 57 194 4.0 10.0 0.00 0.00 0.00 87 994.9
20260831082711 57 196 5.0 10.0 0.00 0.00 0.00 87 995.0
20260831082211 57 177 5.0 10.0 0.00 0.00 0.00 87 995.0
20260831081711 57 180 6.0 14.0 0.00 0.00 0.00 87 995.1
20260831081212 57 186 6.0 14.0 0.00 0.00 0.00 87 995.1
20260831080211 57 196 5.0 12.0 0.00 0.00 0.00 87 995.2
20260831075213 57 191 6.0 10.0 0.00 0.00 0.00 87 995.2
20260831074213 57 188 6.0 12.0 0.00 0.00 0.00 87 995.2
20260831073711 57 206 6.0 11.0 0.00 0.00 0.00 87 995.1
20260831073211 57 176 5.0 11.0 0.00 0.00 0.00 87 995.1
20260831072712 57 176 5.0 11.0 0.00 0.00 0.00 87 995.1
20260831072211 57 217 5.0 11.0 0.00 0.00 0.00 87 995.2
20260831071706 57 202 5.0 11.0 0.00 0.00 0.00 87 995.2
20260831071200 57 209 5.0 11.0 0.00 0.00 0.00 87 995.1
20260831070146 57 171 6.0 12.0 0.00 0.00 0.00 87 995.3
20260831065640 57 178 5.0 12.0 0.00 0.00 0.00 87 995.2
20260831065133 57 158 5.0 10.0 0.00 0.00 0.00 87 995.2
20260831064627 57 184 5.0 10.0 0.00 0.00 0.00 86 995.2
20260831064122 57 179 6.0 11.0 0.00 0.00 0.00 86 995.2
20260831063109 57 158 4.0 9.0 0.00 0.00 0.00 86 995.3
20260831062604 57 187 4.0 9.0 0.00 0.00 0.00 87 995.2
20260831062058 57 208 5.0 11.0 0.00 0.00 0.00 87 995.2
20260831061046 57 183 3.0 7.0 0.00 0.00 0.00 87 995.2
20260831060540 57 207 4.0 8.0 0.00 0.00 0.00 87 995.1
20260831060034 57 190 3.0 8.0 0.00 0.00 0.00 87 995.2
20260831055528 57 198 2.0 6.0 0.00 0.00 0.00 87 995.2
20260831055021 57 136 3.0 8.0 0.00 0.00 0.00 88 995.1
20260831054516 57 175 4.0 9.0 0.00 0.00 0.00 88 995.0
20260831054010 57 187 3.0 9.0 0.00 0.00 0.00 88 995.0
20260831053504 57 180 3.0 10.0 0.00 0.00 0.00 88 995.1
20260831052958 57 209 3.0 10.0 0.00 0.00 0.00 88 995.0
20260831052452 57 218 2.0 7.0 0.00 0.00 0.00 88 995.1
20260831051946 57 199 2.0 6.0 0.00 0.00 0.00 88 995.0
20260831051440 57 242 3.0 6.0 0.00 0.00 0.00 88 995.1
20260831050934 57 201 2.0 6.0 0.00 0.00 0.00 88 995.2
20260831050428 57 276 3.0 7.0 0.00 0.00 0.00 88 995.2
20260831045416 57 205 4.0 8.0 0.00 0.00 0.00 88 995.3
20260831044910 57 168 3.0 7.0 0.00 0.00 0.00 88 995.3
20260831044405 57 241 2.0 7.0 0.00 0.00 0.00 89 995.3
20260831043858 57 208 2.0 6.0 0.00 0.00 0.00 89 995.3
20260831043352 57 246 2.0 6.0 0.00 0.00 0.00 89 995.2
20260831042846 57 245 2.0 5.0 0.00 0.00 0.00 89 995.3
20260831042340 57 205 2.0 6.0 0.00 0.00 0.00 89 995.1
20260831041834 57 226 2.0 6.0 0.00 0.00 0.00 89 995.2
20260831041328 57 244 2.0 6.0 0.00 0.00 0.00 89 995.2
20260831035810 57 243 4.0 9.0 0.00 0.00 0.00 89 995.0
20260831034758 57 186 4.0 8.0 0.00 0.00 0.00 89 995.2
20260831033746 56 168 4.0 8.0 0.00 0.00 0.00 89 995.1
20260831033239 56 187 4.0 8.0 0.00 0.00 0.00 89 995.1
20260831032734 56 184 4.0 8.0 0.00 0.00 0.00 88 995.0
20260831032228 56 163 4.0 8.0 0.00 0.00 0.00 88 995.0
20260831031722 56 176 4.0 9.0 0.00 0.00 0.00 88 994.9
20260831031215 56 195 4.0 9.0 0.00 0.00 0.00 88 994.9
20260831030710 56 175 4.0 8.0 0.00 0.00 0.00 88 994.9
20260831030204 56 197 3.0 8.0 0.00 0.00 0.00 87 994.9
20260831024645 56 150 3.0 9.0 0.00 0.00 0.00 86 994.7
20260831023634 57 189 4.0 8.0 0.00 0.00 0.00 86 994.7
20260831023128 57 214 2.0 6.0 0.00 0.00 0.00 86 994.7
20260831022116 58 252 2.0 6.0 0.00 0.00 0.00 85 994.7
20260831021610 58 204 2.0 5.0 0.00 0.00 0.00 84 994.7
20260831021104 58 239 2.0 5.0 0.00 0.00 0.00 84 994.9
20260831020558 59 253 3.0 6.0 0.00 0.00 0.00 84 994.9
20260831015546 60 252 2.0 5.0 0.00 0.00 0.00 83 994.8
20260831015040 60 242 3.0 7.0 0.00 0.00 0.00 83 994.8
20260831014534 60 283 3.0 9.0 0.00 0.00 0.00 83 994.8
20260831014028 60 220 3.0 9.0 0.00 0.00 0.00 82 994.8
20260831013528 60 200 2.0 5.0 0.00 0.00 0.00 82 994.7
20260831012525 61 242 3.0 7.0 0.00 0.00 0.00 82 994.8
20260831011525 60 215 3.0 5.0 0.00 0.00 0.00 82 994.8
20260831011025 60 224 3.0 7.0 0.00 0.00 0.00 81 994.9
20260831010025 61 257 3.0 6.0 0.00 0.00 0.00 81 994.9
20260831005522 61 200 3.0 8.0 0.00 0.00 0.00 81 995.0
20260831005023 61 230 3.0 8.0 0.00 0.00 0.00 80 995.0
20260831004522 61 207 3.0 6.0 0.00 0.00 0.00 80 995.0
20260831004022 61 202 3.0 7.0 0.00 0.00 0.00 80 995.1
20260831003523 62 190 4.0 9.0 0.00 0.00 0.00 79 995.0
20260831003022 62 218 4.0 11.0 0.00 0.00 0.00 79 995.0
20260831002524 62 178 4.0 11.0 0.00 0.00 0.00 78 995.1
20260831002018 62 235 4.0 11.0 0.00 0.00 0.00 79 995.1
20260831001519 62 182 3.0 11.0 0.00 0.00 0.00 78 995.1
20260831000019 62 284 4.0 9.0 0.00 0.00 0.00 78 995.2
20260830235518 62 197 4.0 9.0 0.00 0.00 0.00 79 995.2
20260830235018 62 188 4.0 10.0 0.00 0.00 0.00 78 995.2
20260830234020 63 210 4.0 9.0 0.00 0.00 0.00 77 995.3
20260830233014 64 224 4.0 10.0 0.00 0.00 0.00 76 995.4
20260830232015 64 262 5.0 10.0 0.00 0.00 0.00 76 995.3
20260830231514 64 240 4.0 10.0 0.00 0.00 0.00 76 995.4
20260830231016 64 279 4.0 10.0 0.00 0.00 0.00 76 995.4
20260830230514 64 218 4.0 10.0 0.00 0.00 0.00 75 995.3
20260830230015 64 277 4.0 9.0 0.00 0.00 0.00 75 995.4
20260830225515 64 233 4.0 8.0 0.00 0.00 0.00 75 995.4
20260830225010 64 297 5.0 12.0 0.00 0.00 0.00 75 995.5
20260830224511 64 247 5.0 12.0 0.00 0.00 0.00 74 995.5
20260830223510 65 248 4.0 9.0 0.00 0.00 0.00 74 995.5
20260830223010 64 259 4.0 9.0 0.00 0.00 0.00 75 995.5
20260830222010 64 215 5.0 9.0 0.00 0.00 0.00 75 995.7
20260830221512 64 234 5.0 10.0 0.00 0.00 0.00 74 995.7
20260830221012 65 295 4.0 10.0 0.00 0.00 0.00 74 995.8
20260830220508 65 229 4.0 10.0 0.00 0.00 0.00 74 995.9
20260830220007 65 289 4.0 10.0 0.00 0.00 0.00 74 996.0
20260830215506 65 238 4.0 12.0 0.00 0.00 0.00 74 996.0
20260830215006 65 225 4.0 12.0 0.00 0.00 0.00 74 996.1
20260830214505 65 246 5.0 10.0 0.00 0.00 0.00 75 996.2
20260830214004 65 272 4.0 10.0 0.00 0.00 0.00 75 996.4
20260830213503 65 287 5.0 11.0 0.00 0.00 0.00 75 996.5
20260830213003 65 224 5.0 11.0 0.00 0.00 0.00 74 996.5
20260830212003 65 270 4.0 9.0 0.00 0.00 0.00 74 996.5
20260830211500 65 223 4.0 9.0 0.00 0.00 0.00 74 996.6
20260830211000 65 240 5.0 10.0 0.00 0.00 0.00 75 996.6
20260830210501 65 206 5.0 10.0 0.00 0.00 0.00 74 996.6
20260830210000 65 256 4.0 9.0 0.00 0.00 0.00 74 996.7
20260830205454 65 263 4.0 10.0 0.00 0.00 0.00 75 996.8
20260830204946 65 223 4.0 10.0 0.00 0.00 0.00 74 996.8
20260830204441 65 277 4.0 10.0 0.00 0.00 0.00 74 996.9
20260830203935 65 299 3.0 11.0 0.00 0.00 0.00 74 997.0
20260830203429 65 298 3.0 11.0 0.00 0.00 0.00 74 996.9
20260830202416 65 254 4.0 12.0 0.00 0.00 0.00 74 996.8
20260830201910 65 282 4.0 9.0 0.00 0.00 0.00 74 996.9
20260830200859 65 180 4.0 9.0 0.00 0.00 0.00 74 997.0